User: anonymous   Login
Location: ????????
(55.6189°N, 38.3031°E)
Time: 14:21:16
(UTC+00:00)
Language:

PSLV R/B - Orbit

View from above orbital plane
View from above orbital plane
View from above satellite
View from above satellite

Ground track
Ground track

The orbit data is extracted from the following two-line orbital elements,

1 26960U 01049D   20020.93384904 +.00000303 +00000-0 +23453-4 0  9998
2 26960 097.8003 011.7862 0054482 184.1775 175.9005 15.08089069996853
Epoch (UTC): 20 January 2020 22:24:44
Eccentricity: 0.0054482
inclination: 97.8003°
perigee height: 504 km
apogee height: 580 km
right ascension of ascending node: 11.7862°
argument of perigee: 184.1775°
revolutions per day: 15.08089069
mean anomaly at epoch: 175.9005°
orbit number at epoch: 99685

The dashed part of the orbit path shows where the satellite is in the earth's shadow,  

DLR